Regional Weather Roundup
Issued by NWS

Home | Current Version | Previous Version | Text Only | Print | Product List | Glossary On
Versions: 1 2 3 4 5 6 7 8 9 10 11 12 13 14 15 16 17 18 19 20 21 22 23 24 25 26 27 28 29 30 31 32 33 34 35 36 37 38 39 40 41 42 43 44 45 46 47 48 49 50
000
ASCA42 TJSJ 111210
RWRPR
PUERTO RICO/U.S. VIRGIN ISLANDS HOURLY WEATHER ROUNDUP
NATIONAL WEATHER SERVICE SAN JUAN PR
800 AM AST SUN DEC 11 2016

PRZ001>002-007>008-010-111300-
PUERTO RICO

CITY           SKY/WX    TMP DP  RH WIND       PRES   REMARKS
SAN JUAN LMM   MOSUNNY   81  72  74 E10       30.09R
AGUADILLA      SUNNY     75  72  88 E9        30.09R
CEIBA          SUNNY     81  73  78 E8        30.11R
$$

VIZ001>002-111300-
U.S. VIRGIN ISLANDS

CITY           SKY/WX    TMP DP  RH WIND       PRES   REMARKS
CHARLOTTE AMA  SUNNY     81  72  74 E12       30.08R
CHRISTIANSTED  MOSUNNY   81  72  74 NE12      30.08R
$$

HOURLY WEATHER ROUNDUP FOR THE NEWS MEDIA

CITY           SKY/WX    TMP DP  RH WIND       PRES   REMARKS
ORLANDO        MOCLDY    58  54  86 NE5       30.27R
NEW YORK       CLOUDY    29  14  53 N3        30.54R
NEWARK         CLOUDY    25  17  72 SW6       30.53S WCI  18
CHICAGO        CLOUDY    26  22  84 SE15      30.07F FOG     WCI  14
HARTFORD       CLEAR     12   6  77 CALM      30.51R
BOSTON         PTCLDY    21  11  65 N5        30.52R WCI  15
DALLAS         LGT RAIN  51  45  79 S14G22    29.98F
PHILADELPHIA   CLOUDY    30  15  53 SW3       30.56R
LOS ANGELES    CLOUDY    60  59  96 E3        30.10F FOG
WASHINGTON DC  CLOUDY    26  15  63 CALM      30.53F


USA.gov is the U.S. government's official web portal to all federal, state and local government web resources and services.